GFSMA_850_rhum_333.txt.gz
RH
12 12 12 12 12 13 14 17 21 26 34 48 63 79 86 90 93 95 93 85 77 77 78 87 85 80 76 72 72 65 77 86 89 82 76 66 65 72 78 83 79 92 91
8 6 6 5 5 5 6 6 8 10 12 14 17 23 35 58 71 81 85 90 94 93 80 88 94 88 87 86 82 78 66 80 90 88 80 74 69 69 73 80 83 92 91
5 5 5 4 4 4 4 3 3 3 3 4 7 10 12 15 23 41 60 71 80 90 96 87 85 92 94 90 86 86 84 70 75 86 82 80 78 72 73 79 81 89 91
6 6 5 5 4 4 3 3 3 3 3 3 2 3 4 7 11 13 17 24 43 68 87 95 96 94 91 88 91 93 93 88 81 74 76 83 81 76 76 78 78 82 85
6 6 6 5 4 4 4 3 3 3 2 2 2 2 2 2 3 6 10 15 30 45 81 100 97 100 96 96 93 91 92 100 93 90 81 80 85 82 74 78 80 83 83
7 7 6 6 5 5 4 4 4 3 3 3 2 2 2 2 2 4 8 19 28 46 69 93 99 100 100 100 100 95 89 88 100 99 94 85 82 86 82 73 77 80 85
8 7 7 6 6 6 5 5 5 4 4 3 3 2 2 2 3 20 22 26 30 31 37 64 87 97 99 100 100 100 100 94 90 100 99 99 92 84 87 84 72 80 81
9 9 8 8 7 7 7 6 6 5 5 5 5 5 5 3 11 3 3 4 5 6 8 13 26 56 72 86 98 100 100 100 97 96 97 100 100 97 86 87 83 71 80
12 12 11 10 10 10 9 9 8 7 7 7 6 8 18 32 7 5 3 3 2 2 2 3 4 7 18 33 46 69 93 99 100 100 98 99 99 100 100 86 86 85 73
15 15 15 14 13 13 12 12 11 10 10 9 8 8 10 16 28 41 12 5 4 3 3 3 3 3 4 6 11 15 22 65 91 99 100 99 100 100 99 99 96 91 88
18 19 19 18 17 17 16 16 14 13 12 11 10 10 8 11 21 63 56 20 6 6 5 4 3 3 3 4 5 7 8 9 23 65 90 100 100 100 99 98 98 100 91
21 23 23 23 22 22 21 20 18 16 14 13 12 15 18 20 17 43 75 34 24 18 8 7 6 5 4 4 5 6 6 6 7 10 53 48 97 100 100 100 99 100 99
25 25 26 28 28 28 27 25 22 19 17 15 13 14 15 20 26 27 45 69 80 22 20 10 10 7 6 6 6 6 6 5 5 6 6 11 27 83 96 100 100 100 95
31 31 30 32 33 33 32 30 27 23 20 18 16 15 15 16 20 26 40 78 88 77 68 40 10 9 10 8 7 7 9 8 6 5 6 5 5 25 39 90 99 100 99
42 39 38 37 37 37 37 34 31 27 24 21 19 18 17 17 18 20 25 39 97 93 75 67 58 14 9 10 11 12 13 14 12 10 8 7 6 6 8 27 55 95 100
52 50 47 46 45 44 41 38 35 31 27 24 22 20 19 18 18 18 21 25 36 90 100 68 62 32 19 13 12 18 20 19 17 15 13 9 8 7 6 8 15 39 85
57 58 58 58 54 51 46 42 37 34 30 27 25 23 21 21 20 20 22 24 26 44 98 65 56 55 40 24 18 23 25 30 26 21 19 17 12 10 8 8 23 11 41
55 56 57 56 53 49 45 42 38 35 32 30 27 26 24 24 23 23 25 25 31 32 76 73 72 83 72 55 37 26 35 37 39 34 26 25 32 19 27 15 11 9 13
56 57 58 56 54 50 45 42 40 37 35 32 30 28 28 29 27 31 34 32 32 49 76 100 99 97 99 98 85 53 40 57 90 82 69 72 74 86 24 21 19 30 90
60 59 57 55 53 50 47 45 43 40 38 36 35 36 39 41 36 46 79 70 80 92 95 100 90 92 97 93 99 96 76 70 87 93 89 61 43 60 70 40 96 96 79
64 66 63 60 57 55 52 49 48 53 67 67 72 81 82 95 98 100 97 96 100 100 93 92 99 97 100 98 95 94 97 81 58 79 81 70 47 54 54 47 32 30 30
61 64 62 63 63 60 56 57 100 100 100 100 100 100 100 100 100 99 98 100 98 97 98 96 98 100 97 94 88 93 89 98 92 50 87 81 83 62 53 52 43 40 38
65 63 64 66 63 60 56 60 100 100 99 98 100 100 100 100 100 88 45 74 77 79 95 96 94 85 86 73 80 94 98 98 89 63 83 97 96 96 65 62 72 62 54
74 74 70 68 67 60 57 90 100 100 98 100 100 100 100 94 57 86 98 97 79 58 61 78 90 82 82 89 94 93 94 97 99 86 76 98 80 94 83 53 62 74 62
79 82 79 72 72 65 61 97 100 100 100 100 100 98 94 82 71 100 97 91 87 81 78 98 97 94 90 89 89 91 98 98 96 97 87 99 85 98 97 92 72 88 91
77 78 75 80 87 85 65 76 100 100 100 99 100 100 100 100 97 93 94 96 98 93 87 63 61 65 69 74 98 96 82 76 81 84 71 94 92 94 93 82 83 80 74

GFSMA_850_rhum_339.txt.gz
RH
11 10 10 9 9 8 9 10 9 11 12 14 18 21 27 34 44 67 81 80 86 86 86 89 86 80 77 85 78 81 78 76 77 86 92 91 89 81 75 73 77 85 85
7 6 6 5 5 5 4 4 4 4 3 3 4 4 6 10 13 17 25 39 66 73 81 83 85 87 89 88 89 87 81 85 84 74 83 90 96 90 82 78 76 77 85
6 6 6 5 5 5 5 5 4 4 3 3 2 2 3 3 5 8 11 17 24 37 46 59 70 77 89 96 92 96 93 82 85 89 82 84 92 100 94 85 81 83 82
7 7 7 7 7 7 7 7 7 7 6 5 4 3 2 4 4 9 11 13 15 22 31 44 59 81 98 100 99 100 98 97 94 96 91 85 78 88 100 95 91 86 85
8 9 9 9 9 9 10 9 9 9 8 8 6 5 4 3 3 6 11 14 12 17 19 22 35 56 89 97 99 100 100 99 100 99 99 99 98 95 92 92 93 96 90
10 11 11 11 11 12 11 11 11 11 10 9 8 7 11 9 8 11 10 9 10 10 10 12 16 19 29 51 80 92 99 99 100 100 100 99 100 100 100 96 97 98 98
12 13 14 14 14 14 14 13 13 13 12 11 10 11 24 25 33 18 18 13 7 5 5 5 6 8 11 12 20 40 72 85 97 100 100 100 99 100 100 100 100 99 98
15 16 16 16 16 16 16 16 16 15 20 15 11 19 23 26 39 13 23 25 20 9 8 7 4 3 4 5 6 9 13 26 49 71 89 100 100 100 100 100 100 100 100
17 18 18 18 18 18 18 19 19 19 18 35 16 11 19 22 16 34 24 34 32 23 22 13 7 8 7 6 4 7 5 4 6 11 27 56 79 98 100 100 99 100 100
18 19 20 20 20 20 21 22 22 23 23 32 38 24 13 12 41 33 26 27 35 34 27 23 9 10 22 10 10 12 4 3 3 3 6 25 34 65 80 98 100 100 98
20 21 22 23 24 24 24 25 26 27 28 28 36 30 27 37 40 54 53 35 30 38 34 30 19 17 22 8 17 16 3 2 2 2 3 14 50 43 33 62 61 91 100
23 24 25 27 28 29 29 29 29 30 30 31 33 42 39 40 34 48 50 48 46 30 43 27 39 34 23 27 22 7 3 3 2 2 5 7 10 22 29 9 14 33 67
32 33 33 36 37 38 38 36 35 34 34 34 35 40 45 38 38 42 62 59 57 51 43 36 42 42 35 36 18 6 5 5 4 3 3 6 6 4 4 10 9 12 11
37 39 41 42 42 40 40 41 39 37 38 39 40 38 40 44 51 59 64 68 67 58 50 46 41 39 38 36 13 8 6 7 9 6 3 3 3 5 8 9 15 8 8
44 46 47 47 43 42 41 42 40 41 46 50 51 50 49 52 58 63 68 72 76 75 65 51 48 46 49 24 13 10 11 9 8 8 22 17 8 6 14 40 41 28 15
52 52 48 43 38 34 32 35 37 40 47 48 49 50 51 53 59 64 69 71 71 72 74 65 58 54 52 52 20 11 11 14 8 11 59 74 74 54 43 44 69 90 77
50 43 36 32 31 32 34 37 41 46 48 47 48 54 59 57 58 59 61 64 66 67 70 71 64 61 60 52 39 39 20 10 13 28 71 80 88 92 91 91 92 92 94
34 34 34 35 36 38 39 42 47 50 54 57 62 65 65 64 63 64 65 65 65 66 68 71 71 68 66 68 71 58 51 52 56 22 51 85 88 85 84 86 90 88 91
38 38 42 44 45 44 46 47 48 50 54 59 65 71 71 72 71 69 68 68 68 69 71 74 77 76 76 76 76 76 68 67 57 70 66 61 63 73 84 85 87 91 92
44 46 46 49 49 46 45 45 52 60 66 66 69 71 71 74 76 76 77 76 76 77 78 79 80 82 76 79 76 69 75 71 73 63 57 64 69 63 78 79 81 85 90
51 61 64 55 52 53 60 65 72 78 83 86 87 86 85 86 88 92 95 90 84 80 78 80 95 98 89 78 86 89 79 75 77 63 72 66 51 69 67 73 78 76 79
54 61 66 67 64 75 83 94 100 100 100 99 95 93 91 91 90 90 90 94 97 97 97 98 86 96 99 96 88 87 84 81 85 74 74 76 74 55 71 84 79 79 80
50 60 71 79 82 84 88 96 100 100 98 96 96 93 92 89 89 95 91 90 93 96 94 96 97 90 91 77 89 89 85 83 81 79 86 89 76 88 59 65 88 89 90
39 49 64 82 90 89 91 97 100 98 97 95 94 91 90 89 88 87 90 88 79 82 86 82 79 80 80 80 83 84 85 90 84 87 80 100 80 91 81 73 81 81 76
38 46 71 86 89 87 88 94 98 95 93 91 92 90 90 89 85 88 94 98 95 79 74 83 88 90 89 88 91 95 98 99 94 88 74 92 88 89 83 76 67 64 70
37 47 82 87 86 87 87 93 95 97 97 96 96 88 89 90 90 90 92 91 89 75 81 91 89 81 85 70 75 80 88 93 96 99 83 89 87 79 84 65 48 52 65

GFSMA_850_rhum_342.txt.gz
RH
19 17 16 15 15 14 15 15 15 16 16 19 20 23 22 22 26 36 47 70 88 83 86 85 84 86 83 81 80 76 82 86 85 79 83 84 88 95 91 85 78 77 84
10 9 8 7 6 6 5 5 5 4 4 4 4 4 5 8 18 17 19 22 29 40 51 61 69 77 82 91 99 85 85 94 91 86 79 76 82 88 96 93 88 86 82
7 6 6 6 6 6 6 6 5 6 5 4 4 3 3 5 10 8 8 11 16 21 28 32 42 63 82 96 100 100 95 89 95 89 91 89 79 89 98 98 97 94 90
7 7 7 7 7 7 8 8 8 8 8 8 7 6 5 5 4 5 6 6 9 12 17 20 27 41 59 97 100 99 100 100 100 100 97 100 99 91 86 91 98 95 94
8 8 8 9 9 10 10 10 10 10 10 10 10 9 9 7 5 5 6 6 7 7 8 9 13 17 21 33 66 88 94 99 100 100 100 100 100 100 98 89 83 88 93
9 10 10 11 12 12 12 12 12 12 12 13 12 11 13 12 16 10 8 7 6 6 5 6 6 6 9 12 14 19 38 71 88 100 100 100 100 99 100 100 99 98 93
11 12 13 14 14 14 14 15 15 14 14 14 14 13 21 22 25 19 10 13 9 8 6 5 4 4 4 5 7 10 11 13 23 48 83 100 100 100 100 100 100 99 100
14 15 16 16 17 17 17 17 17 17 17 17 16 15 14 40 31 14 18 15 18 13 10 8 7 5 6 4 5 4 4 4 6 12 18 33 68 95 100 100 100 100 99
16 17 18 19 19 19 19 19 19 19 19 19 19 18 14 17 12 21 21 15 19 15 14 10 9 7 9 6 7 4 3 4 3 3 14 20 36 49 64 88 100 100 100
18 20 21 22 22 22 22 21 21 21 22 22 23 22 21 20 18 17 14 14 20 22 12 16 11 10 13 6 7 7 4 3 2 2 11 48 76 93 90 46 47 86 96
21 22 23 24 25 25 25 25 25 25 26 26 26 26 27 27 27 42 48 33 20 17 17 20 15 13 16 11 10 7 4 3 3 4 6 18 44 54 38 34 28 25 26
23 25 27 28 29 30 30 29 28 30 31 30 30 32 35 36 33 40 40 33 32 28 25 22 21 20 26 18 18 11 6 4 4 4 8 31 24 12 7 14 31 53 34
28 30 32 34 35 36 35 32 30 30 31 30 30 32 36 40 38 36 40 40 52 45 41 34 27 32 35 32 26 13 12 5 5 5 5 6 14 11 8 12 25 34 34
36 37 38 40 41 40 38 34 31 30 32 32 32 35 38 40 44 48 51 52 57 56 52 45 39 37 41 35 34 24 16 8 6 7 6 7 6 5 8 22 34 29 24
43 45 45 46 45 43 38 34 30 27 28 30 33 37 41 44 50 54 56 56 61 79 78 65 49 38 38 43 39 25 22 12 9 8 8 13 18 12 11 9 34 92 92
51 51 50 47 41 35 29 27 25 24 25 25 29 35 40 45 51 53 57 62 67 72 77 71 62 55 42 39 42 36 22 15 15 12 11 35 71 75 69 76 80 67 92
56 52 41 33 28 25 23 23 23 23 25 27 30 34 39 44 48 50 53 54 59 63 68 70 67 66 69 64 52 35 29 23 18 17 43 78 81 91 89 87 87 85 86
40 32 28 25 24 24 24 25 26 27 33 36 35 39 41 46 51 54 57 59 62 63 66 68 68 68 71 66 61 55 45 43 47 47 60 70 85 74 73 75 83 88 87
29 28 28 26 26 26 29 31 34 38 40 43 46 51 51 55 59 59 60 63 64 67 69 72 74 76 74 69 77 81 77 78 77 58 78 75 62 44 61 75 82 87 85
30 29 29 31 34 39 41 42 42 42 44 48 53 58 61 63 63 63 64 64 65 69 73 78 81 86 85 73 70 96 91 70 79 87 76 59 65 40 30 53 79 82 84
35 34 38 40 53 50 48 47 53 57 62 68 71 77 82 85 92 93 94 89 89 89 86 84 77 71 68 81 97 70 87 98 86 79 56 39 51 65 59 37 33 52 81
36 42 47 49 51 55 60 90 96 99 97 95 92 89 86 96 93 97 94 92 95 97 95 92 87 84 95 98 78 98 94 82 78 54 69 62 67 70 62 58 58 83 88
32 37 39 44 48 50 70 92 95 96 99 100 96 91 92 97 97 98 98 96 95 96 98 96 98 98 96 92 92 84 65 76 73 62 77 78 73 81 62 61 63 90 89
27 28 28 29 35 38 79 92 94 94 97 100 99 93 89 86 84 89 89 88 86 80 76 70 71 71 68 67 64 71 77 88 91 87 85 99 92 94 86 68 65 87 87
35 29 27 28 30 30 53 91 93 92 92 93 93 88 84 84 90 94 95 96 98 97 91 95 93 90 91 94 94 98 97 97 96 94 82 98 92 94 78 92 78 78 75
50 45 37 33 32 47 71 93 94 92 96 99 98 97 97 95 93 92 95 96 94 82 77 72 69 70 78 74 86 84 88 75 85 95 72 90 92 98 96 78 72 70 52

GFSMA_850_rhum_345.txt.gz
RH
59 58 57 56 56 49 47 48 41 39 38 33 29 29 31 34 34 38 41 43 59 79 81 83 86 91 99 100 100 90 71 86 88 84 78 85 90 94 95 94 89 82 81
21 17 16 15 14 12 11 10 10 10 8 8 8 7 10 12 14 16 17 19 21 25 30 38 47 64 99 100 100 99 88 81 92 91 88 90 78 91 95 96 94 91 87
11 10 8 8 7 6 6 5 5 5 4 4 4 4 4 4 4 5 6 7 8 11 15 19 24 46 92 100 91 91 100 99 100 100 99 91 90 89 88 98 100 96 97
8 8 7 7 7 7 7 7 7 8 8 8 7 8 8 6 5 4 5 5 5 6 6 8 11 15 23 65 83 83 94 98 99 100 100 100 100 100 97 89 96 100 100
8 7 7 7 8 8 8 9 9 10 10 10 10 11 12 12 10 8 7 6 5 5 4 5 6 6 7 12 18 17 25 59 82 92 99 100 99 100 100 100 99 97 98
8 8 9 9 10 10 10 11 11 11 12 13 12 13 17 21 22 14 10 10 9 7 6 4 4 4 4 4 6 6 9 12 17 35 69 92 100 100 100 100 100 100 100
9 10 10 11 12 12 12 12 13 13 13 14 14 15 20 32 30 14 12 12 9 9 8 8 6 5 4 4 4 3 3 3 5 15 16 23 42 79 100 100 100 98 100
11 12 13 13 14 14 15 15 15 15 15 15 15 14 21 44 29 17 18 12 12 10 9 9 8 8 6 6 6 4 3 3 3 12 30 34 48 41 39 70 96 99 99
14 15 16 16 17 18 18 18 18 18 17 16 15 15 15 15 14 21 19 15 14 12 13 10 10 10 9 8 7 6 4 4 3 5 36 92 90 93 93 69 47 40 85
16 17 19 20 20 20 20 21 20 19 18 17 16 15 16 16 17 16 15 16 16 15 16 15 15 15 15 12 11 9 6 4 3 5 26 92 90 92 81 59 53 74 30
19 20 21 22 23 24 24 23 22 20 18 17 16 15 16 17 22 27 24 19 18 14 17 18 17 20 22 19 19 15 10 7 5 4 33 90 92 89 23 9 14 65 73
20 22 24 26 28 28 28 27 24 21 20 19 18 17 18 18 20 31 44 33 29 22 19 19 19 24 25 28 28 26 20 15 9 5 5 85 90 90 42 18 15 12 19
22 26 29 31 33 33 32 30 27 23 22 21 21 22 22 22 26 29 36 35 42 36 32 28 25 27 30 37 40 38 29 23 18 11 6 33 29 32 40 60 67 32 12
25 31 34 37 38 38 36 32 28 24 23 22 21 22 23 25 29 32 37 43 50 54 54 47 37 35 40 40 43 40 34 32 25 18 10 18 17 16 17 24 57 88 90
29 36 40 42 42 40 35 29 25 23 22 21 21 21 22 23 28 32 38 46 57 69 71 66 59 34 30 35 38 39 35 31 30 23 18 13 15 69 79 78 52 83 92
37 43 46 48 47 38 31 26 22 21 20 20 21 21 22 23 27 33 39 44 51 60 71 67 63 57 45 37 35 40 43 35 30 24 21 21 55 88 87 92 92 91 89
46 49 52 49 37 29 24 21 20 20 20 21 21 23 24 26 28 32 36 43 50 55 60 58 57 56 53 52 45 40 40 36 29 23 26 82 87 87 88 89 86 86 90
55 56 43 32 26 23 23 21 21 22 22 22 22 26 28 31 36 39 43 46 50 52 61 64 61 59 61 61 63 56 43 37 44 51 62 90 84 86 88 85 83 87 86
50 36 30 26 24 22 22 22 22 22 22 23 25 30 32 36 40 42 45 50 51 54 58 63 62 60 61 59 54 56 61 53 52 77 88 78 87 92 86 82 83 87 89
33 30 28 27 25 24 24 24 24 24 24 27 30 39 43 44 46 48 51 54 55 58 62 66 68 66 64 62 61 63 58 62 78 69 56 77 83 71 42 25 58 81 81
33 30 30 29 27 28 27 28 27 29 35 41 48 54 54 55 66 87 89 83 84 86 88 90 90 84 77 69 64 67 83 97 86 65 59 54 55 43 25 18 15 20 28
35 34 31 29 29 30 31 54 93 94 90 92 92 87 81 80 88 100 99 96 96 98 94 89 83 85 83 90 100 99 100 98 98 56 55 39 36 39 38 46 50 43 55
36 35 31 30 30 29 28 79 94 94 98 100 99 100 99 100 99 99 99 99 98 99 99 98 99 99 98 99 96 95 82 83 66 48 58 64 65 60 62 68 68 69 90
41 41 36 29 27 26 32 86 93 93 95 95 96 99 100 95 92 95 94 89 85 80 75 73 72 70 70 70 68 66 64 62 67 66 76 98 79 87 81 74 61 81 86
46 48 49 42 40 37 31 78 91 93 95 99 100 100 100 98 98 98 94 92 90 89 86 91 93 96 97 95 98 98 97 97 96 96 96 91 87 84 78 66 56 53 90
58 56 52 52 53 53 50 88 96 96 96 98 96 94 96 97 98 96 96 98 100 95 87 86 82 75 76 66 73 80 80 84 92 93 74 83 85 93 99 75 86 87 74

GFSMA_850_rhum_351.txt.gz
RH
88 89 87 85 84 86 80 81 77 78 77 77 77 78 80 81 81 78 80 84 86 94 100 99 99 100 100 100 99 97 100 100 100 98 95 96 99 100 99 99 98 96 92
88 86 84 83 78 78 76 71 66 66 62 55 54 47 45 41 38 34 32 30 30 36 70 99 100 100 100 100 100 90 79 97 100 100 100 100 99 99 100 99 99 100 97
84 82 79 75 72 68 62 56 52 48 48 42 40 31 25 19 14 11 10 8 7 7 9 27 91 65 58 42 38 34 34 42 58 92 100 100 100 100 100 100 99 100 99
62 59 53 49 45 33 26 23 22 18 15 12 11 9 7 6 6 5 5 4 4 4 4 4 7 8 6 5 10 7 9 13 32 64 82 98 100 100 99 99 99 99 99
26 20 16 14 10 8 7 7 7 7 7 8 8 8 9 8 9 9 8 8 7 6 6 5 4 3 3 3 3 4 5 5 6 11 17 45 80 95 99 100 100 100 100
11 9 9 8 7 7 7 7 8 10 10 10 12 14 16 14 13 12 10 10 9 8 8 7 7 6 5 5 4 4 4 10 10 11 9 9 16 32 68 87 98 99 100
8 8 8 8 8 8 9 10 10 12 14 15 16 23 22 17 15 15 12 12 11 10 9 9 8 8 7 7 6 6 5 7 58 87 73 48 16 26 42 36 50 66 94
8 8 8 9 10 10 11 12 12 13 15 18 21 24 28 26 19 18 17 14 13 12 11 10 10 9 8 8 8 8 8 6 19 84 92 93 94 93 95 93 79 57 57
10 10 10 11 12 12 12 13 14 14 14 17 19 15 31 33 21 20 20 17 15 14 12 11 10 9 9 9 10 10 10 10 10 45 91 94 95 96 96 97 97 96 94
12 12 12 13 13 13 14 14 15 15 15 14 15 14 14 14 15 23 22 18 16 14 13 11 10 9 8 9 10 12 14 14 15 30 84 95 96 97 96 98 96 96 97
14 14 15 15 15 15 16 16 16 17 17 16 16 16 15 15 14 14 15 16 16 14 13 11 9 8 8 9 12 15 16 17 18 30 81 89 94 95 96 98 97 95 94
15 16 16 17 17 18 18 19 19 19 19 18 18 17 16 15 15 15 15 15 14 14 13 11 9 8 8 10 14 20 24 23 23 25 75 90 94 95 98 98 97 94 94
17 18 19 20 20 21 21 22 22 22 21 20 19 18 17 16 16 15 15 16 16 14 13 12 11 8 9 9 11 18 18 21 24 22 33 89 95 96 96 95 94 94 93
17 19 20 22 23 25 26 26 26 25 23 22 20 20 18 17 16 15 15 15 16 15 13 13 12 10 10 12 14 17 19 19 19 21 30 65 80 58 90 90 92 93 93
19 20 22 25 27 30 31 31 30 28 25 23 21 20 18 17 16 14 14 14 18 24 23 16 15 13 12 12 12 14 15 16 18 19 20 24 27 38 89 90 92 93 90
23 24 26 30 34 36 36 36 34 30 27 24 23 22 20 17 15 14 14 16 20 26 36 22 17 14 12 14 14 17 18 20 21 21 21 21 25 33 85 95 93 93 91
28 30 32 36 39 41 43 42 38 32 27 24 22 20 18 16 15 14 15 17 20 24 30 26 22 18 18 17 17 19 21 22 22 23 25 26 34 79 81 90 93 93 91
42 41 41 41 44 47 48 47 38 31 25 23 21 19 17 16 14 14 16 18 21 22 30 33 29 24 23 22 23 22 23 25 28 26 24 28 36 80 94 96 95 95 97
53 50 47 48 52 54 55 47 34 28 24 22 21 19 17 16 15 16 18 20 21 24 26 32 33 32 31 30 31 34 30 28 35 36 37 33 32 89 95 97 95 95 97
62 63 63 63 63 62 51 37 30 27 25 24 22 19 17 16 16 17 20 22 24 26 27 32 36 39 44 50 60 61 48 46 41 39 43 46 44 63 91 79 64 42 47
73 73 73 70 63 50 40 34 32 29 27 24 20 17 15 14 16 18 20 21 26 31 35 38 51 66 75 75 67 66 82 79 67 58 50 40 43 41 42 40 36 33 29
94 92 82 64 53 48 42 38 38 32 26 22 18 16 17 21 22 32 91 98 97 87 88 89 91 86 79 80 95 97 95 97 91 86 69 55 53 48 41 32 32 34 42
95 95 94 94 90 82 73 53 63 86 82 70 47 36 35 38 42 44 44 61 94 96 96 96 98 99 99 99 98 98 98 97 93 83 73 59 53 52 53 46 44 47 63
95 95 95 94 93 75 48 44 80 89 85 76 68 67 67 58 56 69 73 74 69 69 73 76 88 92 93 86 73 65 58 60 63 60 64 78 82 80 77 70 64 64 86
96 95 95 94 89 71 49 46 86 88 84 71 68 78 80 82 85 100 99 100 97 91 81 100 100 98 97 96 99 95 97 98 96 99 96 98 93 91 80 74 56 52 55
94 94 91 81 73 70 66 72 99 98 95 91 84 80 90 96 100 98 94 98 98 89 77 70 69 80 86 86 86 82 88 96 93 86 80 86 78 77 93 84 82 74 68

GFSMA_850_rhum_354.txt.gz
RH
93 93 92 90 87 83 80 82 85 89 85 82 83 84 87 88 92 95 95 100 100 99 100 100 97 88 96 98 93 94 99 100 100 100 100 99 99 98 99 99 100 100 99
91 90 92 89 87 88 85 86 84 84 83 80 82 81 81 79 73 68 78 89 99 100 99 97 98 99 99 99 99 80 78 96 100 100 100 100 100 100 100 99 98 99 99
88 88 89 86 84 82 80 78 72 70 65 62 62 53 48 43 37 32 30 25 32 80 100 98 88 86 77 59 32 23 22 27 36 64 98 99 99 99 100 99 98 98 99
86 85 82 81 79 76 67 66 64 61 55 50 44 34 29 23 17 13 10 8 6 6 14 28 27 16 6 11 23 29 9 7 13 27 66 79 97 99 99 99 99 99 96
75 70 71 70 66 60 51 50 49 46 42 31 23 13 9 7 6 6 5 5 5 4 4 3 3 3 3 4 10 31 37 8 5 7 8 15 49 86 94 94 96 98 98
57 50 46 44 38 27 20 18 18 15 14 10 9 9 11 11 11 10 9 9 8 8 8 7 7 6 6 5 5 6 24 52 28 12 11 18 21 12 18 43 67 87 87
26 19 15 12 9 8 8 8 8 9 10 10 9 15 16 16 13 12 11 11 10 10 10 10 9 8 8 7 7 6 6 25 80 81 67 50 49 69 76 56 32 28 44
11 10 9 8 8 8 9 10 10 10 12 14 15 16 21 22 20 16 14 14 13 13 13 12 12 11 10 9 8 7 7 7 26 77 81 86 91 96 94 89 87 90 89
10 10 9 9 9 10 10 11 12 11 11 16 18 20 23 26 22 22 19 16 15 14 14 13 12 11 10 9 9 8 8 8 12 73 93 95 96 97 99 100 97 97 94
10 11 11 11 11 12 12 12 14 15 14 13 19 16 15 17 21 26 24 22 17 15 14 13 12 10 8 8 7 7 7 8 10 20 78 95 96 99 98 100 100 99 97
11 12 12 12 13 13 14 14 14 16 17 17 15 15 14 14 14 16 23 22 17 15 14 13 12 10 8 8 7 8 7 7 7 9 18 74 95 98 97 100 100 100 98
13 14 14 15 15 16 16 16 16 17 16 16 16 16 15 15 15 15 16 17 16 16 15 14 12 11 9 8 8 8 9 11 12 12 14 74 95 100 99 99 98 99 97
16 16 17 18 18 18 19 19 19 19 18 18 18 17 17 16 16 17 17 17 17 17 16 14 14 12 11 9 8 9 9 10 11 12 19 78 94 98 96 92 96 97 96
17 18 19 20 20 21 22 22 22 21 21 20 20 19 19 19 18 18 18 18 17 16 16 16 15 14 13 12 10 9 8 8 9 10 11 14 16 20 38 73 94 95 94
22 22 22 23 24 25 25 26 26 25 24 23 22 21 21 20 19 19 18 17 16 16 16 17 16 16 15 11 10 9 8 8 9 10 12 13 16 17 21 58 88 95 94
26 25 25 26 28 29 30 30 30 29 27 26 24 23 22 21 20 19 18 17 16 16 18 21 17 13 12 12 11 10 10 11 12 12 12 13 15 18 30 82 93 94 93
32 31 33 36 35 35 36 36 36 35 32 28 26 24 22 22 21 19 18 16 15 15 17 15 14 12 10 10 10 10 11 11 11 13 13 13 14 17 22 85 92 96 95
75 53 42 37 41 42 44 45 45 42 36 31 27 24 23 22 21 19 18 16 15 14 16 16 13 10 10 9 10 10 11 12 15 16 18 18 17 21 42 57 94 97 95
56 52 51 49 49 50 52 54 53 49 41 33 27 25 24 23 22 20 17 15 13 13 15 19 18 14 12 11 11 12 12 13 18 24 26 24 23 21 26 94 95 96 100
67 65 63 61 60 61 62 61 59 51 40 32 28 26 25 24 23 19 15 13 12 11 13 18 20 20 19 16 20 21 18 20 22 25 28 34 32 32 33 65 89 84 52
68 70 71 73 74 73 69 64 54 44 37 33 30 28 26 24 20 16 13 11 11 13 15 18 25 27 32 37 44 49 54 55 45 43 42 36 36 36 40 42 41 36 30
95 95 94 93 92 85 76 78 77 73 50 35 32 29 27 23 20 17 23 60 58 64 75 81 77 76 68 70 76 86 90 87 83 68 58 46 50 45 36 24 27 34 37
96 96 96 95 96 96 96 95 94 95 94 91 80 58 49 41 30 24 23 32 73 95 100 98 96 89 98 98 96 97 94 94 90 82 77 61 42 43 49 53 58 56 54
96 96 96 96 96 95 96 96 96 96 95 93 91 82 69 48 37 43 40 36 37 40 45 52 78 94 99 98 98 93 81 68 51 50 64 76 80 80 73 69 68 62 74
96 96 96 96 96 95 96 96 96 96 96 95 92 87 71 56 48 48 96 99 94 83 72 78 92 93 94 94 96 85 75 75 91 94 97 97 88 83 74 68 55 65 90
96 96 95 95 95 96 96 100 100 97 96 94 90 84 84 91 94 98 99 97 96 96 90 77 68 65 81 90 98 97 100 98 98 90 83 91 91 89 88 78 74 78 66

GFSMA_850_rhum_357.txt.gz
RH
87 89 87 88 87 90 92 93 95 95 97 100 100 100 100 100 100 100 98 99 100 100 100 99 100 94 88 89 85 82 78 95 100 100 99 97 97 99 94 96 98 98 99
95 95 93 97 96 99 95 94 93 95 98 99 99 99 100 99 100 100 100 99 100 99 99 100 96 90 91 98 99 94 89 88 96 95 100 99 99 99 98 97 97 97 96
98 92 93 97 96 97 96 94 98 95 91 91 87 88 88 86 88 98 100 100 95 92 90 92 92 96 99 82 56 39 40 40 41 62 89 99 100 99 99 97 96 94 100
92 90 88 89 97 93 90 90 86 86 83 83 74 65 59 52 43 36 41 86 99 96 87 84 79 60 34 29 57 23 12 10 11 19 48 60 66 94 99 98 98 98 95
90 90 85 82 80 78 77 76 73 70 67 60 51 44 35 27 23 19 15 12 11 12 16 20 12 5 5 30 80 84 62 36 25 24 13 16 32 62 66 83 93 96 96
91 87 83 78 79 78 76 67 64 56 56 53 39 26 16 11 8 7 6 6 5 5 5 5 5 6 6 6 13 49 69 62 53 58 45 32 22 23 26 27 29 50 76
86 79 70 62 61 61 58 50 50 51 43 35 33 13 12 12 11 10 10 9 9 8 8 8 8 8 8 7 6 7 26 75 76 65 59 62 68 76 72 77 80 79 62
62 57 52 51 49 42 36 34 34 29 24 16 11 10 18 18 15 13 13 12 11 11 12 11 11 11 11 10 9 8 7 11 45 68 72 77 82 90 95 97 93 91 89
40 30 21 20 18 13 11 11 11 10 9 10 10 12 17 20 19 17 16 15 14 14 14 13 13 12 11 10 10 9 8 7 9 43 72 84 94 98 98 98 99 99 99
18 13 10 9 9 9 9 10 10 10 9 9 12 15 17 16 18 23 20 18 16 15 14 14 13 12 11 10 9 8 7 7 8 17 60 82 97 98 99 98 99 100 100
13 12 11 10 10 12 14 14 14 15 14 14 14 16 15 17 17 18 24 24 20 17 15 14 13 12 12 11 10 9 7 6 5 5 7 30 82 98 98 98 99 100 100
14 14 14 14 14 15 17 19 20 20 20 21 20 20 16 14 15 15 17 24 22 18 16 15 14 13 12 11 10 8 7 6 5 5 5 16 73 92 96 96 97 98 98
16 16 16 17 17 16 17 18 20 21 21 20 18 17 15 15 15 14 15 18 20 18 17 16 15 14 13 12 11 10 8 6 5 5 5 7 16 13 12 44 88 96 99
16 17 18 18 18 18 18 18 18 18 17 17 17 17 17 16 16 16 17 17 18 18 17 17 17 16 15 14 14 11 10 8 7 5 5 6 7 8 8 10 34 72 94
20 20 20 20 20 20 21 20 20 20 19 19 19 18 18 18 18 19 19 19 19 19 19 20 19 19 18 16 13 12 11 9 8 6 6 6 7 8 9 10 13 45 83
26 24 24 24 25 25 26 26 25 24 23 22 21 21 21 21 21 21 21 22 22 21 19 21 21 20 17 16 13 11 10 9 8 7 6 7 7 8 9 10 13 50 70
31 29 28 29 30 32 33 33 32 30 28 27 25 24 23 22 22 22 23 23 22 21 20 19 20 18 17 15 12 10 9 9 8 8 7 8 9 10 10 12 27 69 94
45 42 38 37 38 39 42 42 42 41 37 33 30 27 25 24 23 23 23 22 22 20 19 18 18 18 17 13 10 10 9 9 9 8 8 8 10 11 13 15 20 79 93
83 84 82 77 82 80 77 80 74 52 46 41 35 30 27 25 24 23 22 22 21 18 17 17 15 14 14 12 10 10 10 10 10 10 9 10 11 12 15 18 22 84 95
95 95 95 94 94 91 70 58 58 58 56 49 40 33 29 27 25 24 24 23 20 17 16 15 14 12 12 11 11 11 13 14 15 15 16 16 16 18 19 22 27 37 45
94 94 94 95 95 95 94 92 87 85 82 77 65 42 32 29 27 27 26 24 21 17 15 15 18 20 21 20 22 31 31 27 22 21 22 26 29 29 31 34 36 35 35
96 96 96 95 95 94 91 86 81 74 68 62 58 50 40 33 35 40 40 26 32 37 27 42 53 58 50 52 49 48 51 55 68 49 30 33 32 32 33 28 25 21 22
96 96 96 96 96 96 96 96 96 95 94 94 95 95 94 92 90 78 80 86 67 51 88 79 81 80 71 61 75 75 68 70 82 78 72 64 46 38 38 30 30 39 45
96 96 96 96 96 96 96 96 98 99 97 96 97 93 91 91 94 95 94 88 75 51 30 36 59 50 39 52 64 76 85 94 85 69 51 63 72 74 65 67 58 54 54
96 96 96 96 96 95 95 96 97 96 96 96 94 94 93 92 89 93 96 94 87 61 46 40 36 51 75 79 96 91 90 87 80 75 86 98 100 100 98 95 92 86 60
94 96 96 96 93 96 95 96 100 99 100 97 93 92 91 100 100 100 96 96 95 86 83 75 64 60 80 92 99 98 99 98 99 100 100 100 97 90 82 80 81 86 90